User: anonymous   Login
Location: Unspecified
(0.0000°N, 0.0000°E)
Time: 17:02:07
(UTC+00:00)
Language:

OBJECT V - Orbit

View from above orbital plane
View from above orbital plane
View from above satellite
View from above satellite

Ground track
Ground track

The orbit data is extracted from the following two-line orbital elements,

1 43130U 18004V   18175.15157263  .00001195  00000-0  54585-4 0  9993
2 43130  97.5334 237.8229 0011781  76.6769 283.5780 15.22525239 24775
Epoch (UTC): 24 June 2018 03:38:15
Eccentricity: 0.0011781
inclination: 97.5334°
perigee height: 490 km
apogee height: 506 km
right ascension of ascending node: 237.8229°
argument of perigee: 76.6769°
revolutions per day: 15.22525239
mean anomaly at epoch: 283.5780°
orbit number at epoch: 2477

The dashed part of the orbit path shows where the satellite is in the earth's shadow,  

DLR